CDT,Max TemperatureF,Mean TemperatureF,Min TemperatureF,Max Dew PointF,MeanDew PointF,Min DewpointF,Max Humidity, Mean Humidity, Min Humidity, Max Sea Level PressureIn, Mean Sea Level PressureIn, Min Sea Level PressureIn, Max VisibilityMiles, Mean VisibilityMiles, Min VisibilityMiles, Max Wind SpeedMPH, Mean Wind SpeedMPH, Max Gust SpeedMPH,PrecipitationIn, CloudCover, Events, WindDirDegrees
2013-9-1,83,76,68,70,69,66,100,87,65,29.82,29.79,29.75,10,5,0,15,5,18,0.00,5,Fog,235
2013-9-2,78,68,58,68,62,55,93,76,58,29.98,29.89,29.78,10,10,10,12,5,17,0.00,1,,360
2013-9-3,76,66,55,59,56,53,90,75,51,30.09,30.05,29.98,10,10,10,10,3,14,0.00,5,,267
2013-9-4,83,69,54,59,55,51,97,75,38,30.14,30.10,30.06,10,8,1,12,4,22,0.00,0,,269
2013-9-5,79,67,54,61,55,49,90,69,43,30.25,30.20,30.12,10,10,10,12,4,15,0.00,1,,40
2013-9-6,83,68,52,65,55,47,86,66,42,30.26,30.17,30.05,10,10,10,10,4,14,0.00,2,,118
2013-9-7,89,75,60,68,63,58,93,72,40,30.05,29.98,29.91,10,9,4,17,5,23,0.00,1,,228
2013-9-8,81,74,66,68,66,63,93,80,65,30.03,29.99,29.94,10,8,3,15,7,18,0.00,3,,76
2013-9-9,94,79,64,71,68,62,93,69,46,30.00,29.92,29.85,10,9,6,15,8,21,0.00,0,,176
2013-9-10,97,84,71,69,65,60,87,56,30,30.04,30.00,29.92,10,10,6,22,10,30,0.00,0,,230
2013-9-11,97,84,71,71,68,62,91,71,32,30.06,30.02,29.97,10,9,2,23,7,28,0.08,2,Rain,242
2013-9-12,86,74,61,69,60,47,93,68,27,30.05,29.98,29.89,10,10,9,22,7,29,0.00,2,,306
2013-9-13,66,56,46,52,47,42,86,70,46,30.16,30.12,30.06,10,10,10,16,5,25,0.01,5,,32
2013-9-14,71,55,38,44,39,36,100,70,29,30.22,30.16,30.07,10,7,0,12,4,23,0.00,0,Fog,174
2013-9-15,68,58,47,58,51,39,100,80,52,30.15,30.08,30.01,10,8,2,12,3,14,0.13,5,Rain,88
2013-9-16,67,57,47,54,51,45,97,80,52,30.35,30.28,30.17,10,9,3,10,5,16,0.00,5,,37
2013-9-17,73,58,42,52,48,41,97,73,45,30.37,30.28,30.14,10,10,6,10,6,22,T,0,,93
2013-9-18,82,69,55,66,60,49,100,79,48,30.14,30.05,29.97,10,8,0,22,6,31,1.94,6,Fog-Rain,146
2013-9-19,76,71,65,70,67,64,97,89,79,30.02,29.96,29.86,10,8,2,17,8,22,0.21,5,Rain,136
2013-9-20,76,67,57,70,64,51,97,80,66,29.87,29.83,29.78,10,10,9,18,8,23,0.05,4,Rain,245
2013-9-21,66,58,49,54,49,45,93,72,48,29.94,29.86,29.79,10,10,10,16,6,24,0.00,2,,311
2013-9-22,66,55,44,49,46,43,89,71,47,30.08,30.02,29.95,10,10,10,13,4,18,0.00,3,,21
2013-9-23,71,56,41,47,44,40,93,71,41,30.14,30.10,30.06,10,10,10,12,5,16,0.00,0,,90
2013-9-24,73,58,43,49,46,41,93,70,41,30.11,30.03,29.95,10,10,5,13,6,18,0.00,0,,79
2013-9-25,76,62,48,55,50,46,93,74,38,29.98,29.96,29.92,10,9,3,10,5,15,0.00,0,,54
2013-9-26,79,63,47,56,50,46,100,77,32,30.11,30.06,29.98,10,7,1,12,4,16,0.00,0,,57
2013-9-27,81,64,46,51,46,39,83,58,23,30.20,30.14,30.10,10,10,10,14,6,22,0.00,0,,97
2013-9-28,84,67,49,50,49,48,93,76,26,30.14,30.05,29.96,10,10,7,14,7,27,0.00,1,,157
2013-9-29,,,,,,,,,,30.05,30.01,29.96,10,9,3,10,5,30,0.15,6,Rain,344
2013-9-30,73,64,57,54,51,45,89,60,39,30.03,29.99,29.92,10,5,0,10,4,16,0.00,0,Fog,185